Zurück zum Katalog

LEMUR-2 MARIO-SOUSA

AktivWissenschaftSSO
NORAD 67365·PAYLOAD·🇺🇸 United States

Gestartet Jan 11, 2026 von Vandenberg Space Force Base

Loading…

Nächste Überflüge (nächste 24 Stunden)

TLE

AktuellSource: Space-Track

Epoche: Sep 14, 2026, 05:39 UTC

1 67365U 26004C   26257.23569835  .00002000  00000-0  21782-3 0  9997
2 67365  97.8050 254.4821 0007443 196.8370 163.2602 14.89102107 36547

Verfolge LEMUR-2 MARIO-SOUSA in Echtzeit mit AllMySat

Download on the App Store